Temp_Advection
nan nan nan nan nan nan nan nan nan nan nan nan nan nan nan nan nan nan nan nan nan nan nan nan nan nan nan nan nan nan nan nan nan nan nan nan nan nan nan nan nan nan nan nan nan nan nan nan nan
nan 1 -0 -0 0 0 0 0 -0 -0 -0 -1 -0 -1 -1 -0 -0 -0 0 0 0 -0 -0 0 -0 -0 -0 -0 -0 -0 0 0 0 -0 0 0 0 -0 -0 0 -0 0 -0 -0 0 0 -0 -0 nan
nan 2 0 -0 -0 -0 -0 0 0 -0 -0 -0 -0 -1 -1 -1 -1 -0 0 -0 0 0 0 -0 -1 -0 -0 -0 0 -0 -0 -0 0 0 0 0 0 0 -0 0 -0 -0 0 -0 -0 0 -0 -0 nan
nan -0 -0 0 1 -0 -0 -0 -0 -0 -0 -0 -1 -1 0 -0 -1 -1 -0 -0 0 0 0 -1 -1 -0 -0 -0 0 -0 -0 -0 -0 0 0 0 0 0 -0 0 0 -0 0 0 -0 -0 -0 -0 nan
nan -1 -0 -0 0 0 -0 -1 -1 -0 -0 -1 -1 -1 -0 1 -0 -0 -0 -0 0 -0 -0 -0 -1 -0 0 -0 -0 -0 -0 -0 -1 -0 0 0 0 0 0 0 0 0 -0 0 -0 -0 -0 -0 nan
nan -0 0 0 1 -0 -0 -0 -1 -0 -0 -1 -1 -0 -0 1 -0 -1 -0 -0 0 -0 -0 -0 -0 -1 -0 0 -0 -0 -0 0 -0 -0 0 1 0 -0 0 0 0 -0 0 0 -0 -0 -0 -0 nan
nan 0 -0 -0 0 -0 -0 -1 -1 -0 -0 -0 -2 -1 -0 0 1 -0 -0 -0 0 0 -0 -0 0 -0 -1 -0 -0 -0 -0 0 0 -0 -0 0 0 -0 -0 0 0 -0 -0 0 0 -0 -0 -0 nan
nan -0 -1 0 0 -0 -1 -0 -1 -1 -0 -0 -1 -1 -1 -0 0 -0 0 -0 -0 -0 -0 -0 -0 -0 -0 -1 -0 -0 -0 0 0 0 0 -0 -0 0 -0 -0 0 0 -0 0 0 0 -0 -0 nan
nan 0 -0 0 -0 0 -0 -1 -0 -1 -0 0 -0 -1 -2 -1 -0 -0 -0 0 -0 0 0 0 -0 -0 -0 -1 -1 -0 -0 -0 0 0 -0 0 -0 -0 -0 0 -0 0 0 0 0 0 0 -0 nan
nan -0 -1 -0 -0 -0 0 -1 -1 -0 0 -0 -0 -1 -1 -1 -1 -1 -1 -1 -0 -0 -0 0 -0 -0 -0 -0 -0 -1 -1 0 0 0 0 0 0 -0 -0 0 -0 -0 0 0 0 0 -0 0 nan
nan -0 0 0 -1 -1 -1 -0 -1 -1 -0 0 -1 -1 -0 -0 -0 -0 -0 -0 -0 -0 -0 -0 0 -0 -0 -0 -1 -0 -1 -1 -0 -0 -0 0 0 0 -0 0 0 0 0 0 -0 -0 -0 -0 nan
nan -2 -0 -0 -0 -1 -1 -1 -0 -1 -0 -0 -0 -1 -2 -1 -1 -1 -1 -0 0 0 -0 -0 -0 0 -0 0 -0 -0 -0 -1 -0 -0 -0 -0 0 0 0 0 0 0 0 0 0 -0 -0 -0 nan
nan -1 0 -0 -0 -0 -1 -1 -1 -0 -1 -0 -0 -0 -1 -1 -1 -0 -0 -0 -0 -0 -0 -0 -0 -0 -0 -0 0 -0 0 -0 -0 -0 -0 -0 0 0 0 0 0 0 0 0 0 0 0 -0 nan
nan -1 1 0 -0 -1 -1 -0 -0 -0 -0 -0 -0 -0 -0 -1 -0 -0 -0 -1 -0 -0 -0 -0 0 0 -0 -0 -0 0 -0 0 0 -0 0 -0 0 0 -0 -0 0 0 0 0 0 0 -0 -0 nan
nan -0 -0 0 0 -0 -1 -0 0 -0 -0 -0 -1 -0 -0 -0 -0 -0 -0 -0 -0 -0 -0 -0 0 0 0 -0 -0 0 -0 0 0 0 0 -0 0 -0 -0 -0 0 -0 -0 0 -0 -0 -0 -0 nan
nan -0 0 0 0 -0 -1 0 0 -1 -1 -0 -0 -0 -0 0 -0 -0 -0 -0 -0 -0 -0 -0 -0 -0 -0 -0 -0 -0 -0 -0 -0 -0 -0 -0 -0 -0 -0 0 -0 -0 -0 -0 -0 -0 -0 -0 nan
nan 0 -0 -1 -0 -0 -0 -0 0 -0 -1 -0 -0 -0 -1 -0 -0 -0 -0 -0 -0 -0 -0 -0 -0 -0 -0 -0 -0 -0 0 0 -0 -0 -0 0 0 0 -0 -0 -0 -0 -0 0 0 -0 -0 -0 nan
nan 0 -0 -0 -0 -0 -0 -0 0 0 -0 -0 0 -0 -0 -1 -1 -1 -0 -0 -0 -0 -0 -0 -0 -0 -0 -0 -0 0 0 0 -0 -0 -0 0 0 -0 0 -0 -0 -0 -0 0 -0 -0 -0 -0 nan
nan -0 -0 -0 -0 -0 -0 0 0 0 0 -0 0 0 -0 -0 -0 -0 -0 -0 -0 -1 -1 -0 -0 -0 -0 -0 -0 -0 0 -0 -0 -0 -0 -0 -0 -0 0 -0 0 -0 -0 0 -0 -0 -0 0 nan
nan 0 -0 -0 -0 -0 -0 1 0 0 -0 -1 -0 -1 -0 -0 -0 0 -0 0 -0 -0 -0 -0 -0 -0 -0 -0 -0 -0 -0 -0 -0 -0 -0 -0 -0 0 -0 -0 -0 -0 -0 -0 0 0 -0 -0 nan
nan -0 -0 -0 -0 -0 -0 -0 0 -0 0 0 -0 -0 -0 -0 -0 -0 -0 -0 -0 -0 -0 -0 -0 -0 -0 -0 -0 -0 -0 -0 -0 -0 -0 -0 -0 -0 -0 0 0 -0 -0 0 0 0 -0 -0 nan
nan -1 -0 -2 -1 0 -0 -0 -0 0 0 0 0 0 -1 -0 -0 -0 -0 -1 -1 -0 0 0 0 -0 -0 -0 -0 -0 -0 -0 -0 -0 -0 0 -0 0 0 0 0 0 0 -0 0 0 0 -0 nan
nan 1 0 -0 -1 0 0 -0 -0 0 -0 -0 -1 -1 -1 -1 -0 -0 -1 -0 -0 0 0 0 0 -0 -0 -0 -0 -0 -0 0 0 0 0 0 0 0 -0 0 0 0 0 0 0 0 0 0 nan
nan -1 -1 -1 -0 0 0 0 -0 -0 -1 -1 -0 -1 -1 -0 -1 -0 -0 0 0 0 0 0 0 0 -0 -0 0 -0 -0 0 0 -0 0 -0 -0 -0 -0 0 0 0 0 0 -0 0 0 0 nan
nan -0 -0 -0 0 -0 -0 0 -1 -1 -0 -1 -1 -2 -1 -0 -0 -1 -0 -0 -0 -0 -0 -0 -0 0 -0 -0 -0 -0 -0 0 -0 -0 -0 0 0 0 0 0 0 0 0 0 0 0 0 0 nan
nan -0 -0 0 0 -0 -0 -1 -1 -0 -1 -1 -1 -0 -0 -1 -1 -1 -0 -0 -0 -0 -0 -0 -0 0 0 -0 -0 -0 0 0 0 0 0 0 0 0 0 0 0 0 0 0 0 -0 0 0 nan
nan -0 -0 -0 0 0 -0 -1 -0 0 0 0 1 0 -0 -1 -1 -0 -0 -0 -0 -0 -0 0 0 0 0 0 0 0 0 0 0 0 0 -0 0 0 0 0 0 -0 0 0 -0 -0 0 0 nan
nan -0 -1 0 0 -0 -0 -0 0 0 0 0 1 0 0 -0 -0 -0 -0 0 -0 -0 0 0 0 0 0 0 0 0 -0 0 0 0 0 0 0 0 -0 0 0 -0 -0 0 -0 -0 0 0 nan
nan -0 -0 -0 -0 0 0 -0 -0 -0 0 -0 -0 1 -0 -0 -0 -0 0 0 0 0 0 0 0 0 0 0 0 0 -0 0 0 0 0 1 0 0 1 0 0 0 -0 -0 0 0 -0 0 nan
nan nan nan nan nan nan nan nan nan nan nan nan nan nan nan nan nan nan nan nan nan nan nan nan nan nan nan nan nan nan nan nan nan nan nan nan nan nan nan nan nan nan nan nan nan nan nan nan nan
Wind_Speed
6 7 2 6 2 3 4 2 3 6 6 18 16 12 11 15 5 6 12 11 14 15 13 10 7 7 9 13 18 22 22 25 27 29 34 33 32 23 22 21 18 17 15 15 15 15 18 20 22
6 14 8 6 3 3 3 12 9 16 20 27 27 32 24 9 17 23 19 16 19 17 15 13 12 10 10 18 20 23 25 26 27 30 33 32 24 21 20 18 17 15 15 16 18 21 23 23 21
14 20 3 1 3 3 6 6 15 21 22 23 11 18 8 10 28 20 21 22 21 19 18 17 18 15 17 20 21 24 26 27 29 34 30 25 22 20 20 17 15 15 16 19 22 24 23 22 19
2 3 4 3 10 5 5 14 23 23 23 21 16 10 16 24 26 25 21 25 23 20 21 20 21 22 20 20 23 25 28 31 33 33 30 23 21 21 19 16 16 16 20 22 22 25 26 23 19
10 6 3 3 5 17 14 22 21 16 13 23 24 15 21 17 25 22 20 25 23 21 22 23 23 21 21 21 23 27 30 32 30 32 28 25 23 19 17 17 17 20 20 20 22 24 23 21 17
7 4 2 4 20 17 18 27 29 24 23 22 25 22 11 31 24 20 22 24 21 20 21 23 26 24 21 22 22 25 29 27 25 26 32 28 22 19 18 18 19 20 18 20 20 21 21 19 15
6 3 3 3 10 18 17 32 24 23 21 12 23 16 23 31 25 24 23 22 21 18 19 21 23 26 26 23 22 25 25 24 25 25 28 24 18 17 19 19 18 18 19 17 18 19 19 18 15
6 3 5 3 5 8 19 14 31 31 11 25 30 10 23 33 26 25 24 23 20 18 18 18 19 22 26 26 21 25 24 23 27 29 24 24 19 19 19 19 16 16 16 16 17 17 17 18 17
6 3 4 7 8 5 19 21 15 24 33 21 8 30 35 34 29 25 26 24 23 18 19 19 19 20 23 26 26 26 23 20 26 25 24 26 22 20 17 16 14 14 14 14 15 15 15 16 16
3 2 7 5 10 10 16 31 26 21 21 22 25 35 36 32 28 26 24 25 20 18 19 20 18 19 22 23 25 27 29 28 27 26 30 22 19 18 14 14 13 13 15 14 13 14 12 8 7
3 4 10 14 19 21 22 28 30 27 14 29 28 37 36 33 28 23 20 16 15 18 19 21 18 17 19 22 22 26 29 30 31 24 23 20 14 13 12 13 13 11 11 11 14 9 4 3 3
5 11 7 13 19 21 19 29 18 24 23 32 34 29 32 31 28 23 20 20 21 18 18 21 19 15 15 16 21 19 22 23 20 22 19 12 15 14 12 9 10 9 8 10 10 8 3 2 2
4 8 15 15 16 24 25 18 16 24 29 28 27 24 25 25 24 16 15 19 19 19 19 19 17 12 9 10 16 14 14 18 16 17 17 13 14 10 7 7 7 4 5 9 7 7 4 3 4
11 13 9 18 21 31 26 24 20 24 26 27 28 25 24 24 24 20 20 23 23 19 18 22 16 11 10 11 13 11 11 13 12 13 13 11 9 7 6 7 7 6 4 3 4 6 7 6 8
5 5 6 9 10 14 26 12 12 30 27 27 28 25 23 27 22 24 26 22 23 22 19 20 17 15 13 9 12 10 8 10 8 8 10 12 11 11 11 9 7 7 6 8 9 11 13 10 11
4 4 4 1 2 4 10 6 13 29 27 24 22 17 25 24 26 26 30 23 23 21 19 21 19 17 14 16 14 13 8 9 8 10 12 15 13 13 11 10 10 14 13 11 12 10 10 12 13
6 4 1 5 4 7 5 6 16 26 21 20 18 29 26 26 27 27 27 24 26 21 19 18 10 17 16 16 18 18 12 9 10 9 10 11 14 14 11 10 10 13 12 13 14 15 13 12 11
1 2 2 4 2 7 7 7 12 23 18 20 31 27 26 23 21 25 28 25 23 18 17 14 11 12 14 11 20 16 15 14 11 11 10 10 9 10 9 7 8 14 13 13 12 13 11 12 11
11 6 5 2 6 5 7 11 13 20 19 21 28 29 31 27 22 20 28 27 23 19 15 15 13 13 11 13 18 17 15 17 16 11 9 12 9 11 10 9 10 12 12 8 9 9 9 10 11
8 4 3 6 5 1 12 10 10 14 17 29 32 31 32 28 26 26 28 28 27 19 15 17 15 15 11 10 14 11 11 12 12 13 11 11 12 11 11 8 9 10 10 9 9 9 10 10 10
5 7 3 7 5 4 4 4 5 8 17 23 29 33 32 32 31 30 33 31 30 25 19 17 18 18 14 15 13 12 10 15 15 15 14 12 9 12 11 12 9 9 10 11 12 10 10 8 8
5 17 15 18 7 4 2 3 5 7 12 16 25 30 35 36 34 33 34 33 32 29 22 17 17 17 17 18 15 12 11 10 14 7 7 11 9 8 11 13 10 9 9 10 10 12 12 9 10
1 15 14 15 10 5 1 2 7 4 8 12 20 29 35 37 37 38 35 35 34 30 28 23 19 19 20 17 13 11 13 13 9 11 10 12 11 9 10 12 12 10 10 11 11 13 13 11 13
15 19 11 7 5 3 5 3 4 7 11 14 17 30 38 35 38 36 37 34 34 33 30 27 23 19 21 20 16 16 15 14 14 14 14 11 10 8 9 12 12 11 13 14 13 12 13 12 12
6 5 3 5 4 4 6 4 8 16 9 11 19 31 35 38 33 37 37 38 35 36 34 30 26 22 20 21 21 18 18 18 18 16 15 14 11 12 13 15 17 14 13 13 12 12 14 14 10
6 4 5 6 3 4 5 6 5 12 22 28 26 23 29 34 35 35 31 36 35 33 33 30 27 24 22 19 22 22 19 19 19 18 18 17 15 16 16 15 15 14 14 13 13 15 12 9 9
3 4 8 8 2 3 3 6 5 4 7 15 14 15 18 30 34 37 30 30 34 29 26 27 23 21 20 18 17 23 23 22 20 19 19 21 21 18 17 18 15 16 17 15 14 14 11 13 10
10 11 5 4 4 1 5 3 5 6 9 6 10 15 22 22 27 29 29 25 29 24 19 21 17 11 9 13 13 18 23 23 23 23 22 20 19 18 19 21 21 21 21 17 16 15 13 13 11
1 3 7 6 5 5 3 6 7 10 9 10 16 28 30 29 25 23 23 23 22 18 14 13 13 11 12 12 11 12 16 20 22 23 23 23 23 22 21 21 21 21 22 21 17 14 15 15 14
8 8 8 5 5 3 5 6 4 11 11 20 22 31 31 27 23 21 23 23 20 15 13 10 9 7 8 6 6 5 7 10 13 14 15 18 20 21 20 19 17 21 24 23 17 13 13 17 18
Wind_Direction
64 88 222 271 22 77 88 48 277 57 49 68 91 109 93 55 110 137 147 145 132 120 107 93 88 109 151 158 152 153 149 143 136 134 138 139 140 139 137 130 121 121 128 126 122 123 126 124 120
346 342 319 287 78 74 70 85 88 94 107 95 87 84 69 72 95 132 138 145 130 112 93 72 85 82 127 153 153 154 153 146 140 138 139 140 139 134 133 124 117 119 123 128 129 129 125 126 119
296 284 240 210 161 107 128 161 105 119 102 98 95 81 81 104 123 138 135 143 128 109 88 73 80 87 117 140 149 152 152 148 141 140 139 134 133 134 131 126 121 131 128 131 131 129 125 126 120
149 53 333 4 111 110 109 117 109 102 107 104 104 73 106 124 141 136 137 140 127 108 90 78 88 89 103 126 142 148 150 146 145 145 139 134 132 135 132 131 132 135 129 128 131 135 129 126 122
135 30 359 255 84 119 117 117 112 95 80 94 103 110 121 133 133 124 133 142 126 113 98 86 91 96 101 118 136 144 147 149 150 152 148 133 135 136 140 138 136 134 131 130 134 135 136 130 124
68 65 328 73 95 98 111 120 111 105 113 108 112 115 112 141 125 133 135 134 125 117 108 96 91 94 102 112 128 143 148 149 145 152 144 142 139 138 139 137 139 136 132 128 132 139 143 135 131
106 81 275 158 119 124 135 132 125 126 129 132 124 119 141 149 133 119 123 129 129 124 116 109 102 93 94 106 122 138 144 146 147 149 147 144 134 137 136 137 139 135 130 126 129 136 150 148 146
112 122 301 71 104 134 153 134 139 141 132 137 132 135 154 156 137 125 120 124 119 121 118 109 106 102 97 100 119 131 136 141 143 138 136 140 127 131 137 134 131 130 130 127 128 131 140 148 153
113 74 282 145 147 138 133 123 142 139 143 154 125 137 143 153 142 134 130 128 123 121 126 122 116 117 108 103 108 120 125 137 142 132 131 128 128 127 131 130 131 129 127 125 125 129 132 139 143
130 181 225 148 138 140 119 142 140 140 148 127 120 137 144 147 151 149 146 140 130 130 126 124 118 121 119 114 111 115 123 123 138 134 128 132 121 119 128 128 127 132 131 132 133 127 119 127 156
202 219 141 143 144 142 120 136 135 126 136 146 146 147 150 149 157 156 152 137 138 134 124 129 128 123 120 120 121 121 127 129 132 125 128 117 128 129 126 127 128 132 134 137 143 133 119 130 151
331 253 181 163 150 143 134 130 131 136 148 151 157 157 154 158 162 160 162 160 156 151 132 140 140 132 117 127 133 129 129 138 143 136 139 140 127 124 118 117 127 118 145 147 155 162 175 237 341
159 243 132 139 132 119 134 127 123 131 149 154 161 165 169 168 165 166 164 167 162 156 153 152 152 139 132 128 138 139 140 149 151 157 157 165 157 156 140 152 135 125 134 165 183 193 207 265 309
332 289 92 117 120 124 118 127 126 149 155 164 172 178 182 181 172 164 171 168 165 163 167 170 162 156 156 146 163 154 155 155 157 163 175 181 188 185 174 180 165 193 191 195 233 233 243 269 264
291 358 26 104 112 123 120 115 138 159 164 175 183 186 182 176 174 172 175 172 166 175 168 169 170 167 168 159 171 180 180 198 194 197 200 202 207 215 226 209 201 223 252 252 248 246 244 260 263
89 37 40 47 159 161 116 152 154 166 172 182 193 191 174 178 179 178 176 173 174 182 180 170 177 180 184 182 180 182 188 182 194 208 210 199 205 211 206 213 237 234 242 242 244 252 255 256 252
23 118 157 309 263 129 104 139 173 172 182 182 158 151 160 178 183 179 183 180 183 192 187 183 189 201 197 189 192 197 198 205 226 208 204 205 219 230 244 240 242 228 244 261 278 269 270 249 252
133 42 269 236 254 88 104 149 173 180 183 152 151 154 157 155 164 176 178 182 178 183 181 172 168 146 167 177 187 195 206 211 220 216 210 204 213 218 231 223 247 244 255 258 278 256 249 258 270
145 147 200 214 223 102 153 150 175 185 170 163 162 168 170 171 179 186 184 180 178 179 181 182 183 171 174 177 181 195 207 217 221 215 218 213 216 220 249 252 272 260 259 253 256 249 247 261 272
85 49 292 324 271 128 152 178 181 181 179 179 175 178 178 176 178 184 186 186 184 186 189 191 191 190 182 186 187 197 198 206 210 216 203 202 211 225 237 254 257 257 266 269 265 260 270 273 266
206 158 240 92 355 89 50 4 194 217 193 191 188 190 190 187 183 191 194 194 190 195 198 196 194 188 188 193 196 200 204 199 197 195 201 208 217 213 232 249 256 270 266 275 274 262 253 265 264
241 197 171 92 64 151 74 239 260 202 208 197 201 194 200 198 196 196 202 205 207 207 207 207 196 192 190 192 193 194 204 203 192 189 190 207 215 223 241 240 261 272 272 279 272 251 260 264 270
259 136 148 142 124 90 106 132 245 181 210 214 211 206 207 207 204 200 208 215 218 213 210 212 205 198 198 207 200 200 198 198 213 224 233 230 235 248 251 249 261 267 269 276 261 255 254 255 252
133 82 55 57 80 29 201 78 264 203 210 217 216 207 208 212 211 211 212 216 221 219 216 213 213 208 204 212 213 204 203 210 228 232 229 233 236 242 247 252 264 282 277 279 273 268 266 263 272
69 82 45 17 30 207 341 100 236 219 229 204 207 209 210 210 210 216 215 216 218 222 221 219 219 217 213 216 220 217 215 223 233 239 244 248 241 245 256 267 263 270 279 277 280 280 286 263 240
169 135 136 151 168 274 257 221 243 202 218 222 218 215 216 205 209 214 215 218 216 222 225 221 223 224 220 223 224 228 225 228 234 244 253 256 255 273 270 274 268 262 273 291 304 299 280 224 218
242 55 161 109 77 47 264 288 354 174 208 212 204 160 167 191 202 209 214 216 215 218 222 219 221 227 227 235 237 232 234 235 242 248 254 257 257 253 261 273 262 262 266 283 300 288 268 243 245
154 174 93 19 102 246 275 260 199 179 199 184 156 161 158 170 192 204 208 209 206 213 215 212 216 229 244 245 256 249 243 244 249 255 257 258 251 253 262 268 266 264 264 268 284 286 276 250 248
123 103 49 115 135 162 165 262 208 191 176 168 166 157 158 166 173 177 190 195 203 206 202 203 215 229 239 248 262 265 255 256 258 264 271 272 267 263 250 258 260 259 269 272 278 292 292 265 261
118 139 110 109 201 223 165 257 275 187 160 160 165 166 164 163 162 163 178 183 187 191 198 209 224 237 248 258 258 269 263 262 265 276 284 295 284 279 262 263 286 283 275 276 277 286 299 295 273
Height
1504 1506 1504 1502 1510 1502 1517 1514 1501 1499 1500 1502 1498 1499 1504 1504 1509 1529 1525 1527 1526 1525 1525 1525 1523 1521 1519 1521 1523 1524 1527 1528 1530 1533 1536 1539 1542 1544 1545 1546 1547 1549 1550 1552 1553 1555 1556 1557 1559
1504 1506 1504 1501 1512 1524 1522 1501 1509 1501 1505 1504 1505 1502 1504 1517 1514 1519 1525 1527 1527 1526 1527 1525 1523 1520 1518 1520 1523 1525 1528 1531 1532 1536 1539 1542 1544 1546 1547 1548 1549 1551 1553 1554 1557 1558 1559 1560 1561
1499 1503 1505 1501 1506 1519 1517 1506 1505 1506 1507 1506 1507 1509 1513 1521 1521 1522 1525 1528 1528 1529 1528 1527 1523 1521 1519 1520 1523 1526 1529 1533 1535 1539 1542 1545 1546 1548 1549 1550 1552 1553 1555 1558 1560 1561 1562 1563 1564
1498 1503 1504 1504 1505 1499 1502 1504 1505 1508 1510 1510 1510 1514 1518 1519 1520 1523 1527 1529 1529 1530 1530 1529 1527 1525 1523 1522 1525 1528 1532 1534 1537 1540 1543 1545 1548 1550 1551 1553 1554 1554 1558 1560 1562 1564 1565 1567 1567
1499 1506 1512 1506 1500 1500 1500 1506 1507 1509 1513 1513 1515 1519 1522 1526 1525 1525 1527 1531 1530 1532 1532 1532 1530 1529 1527 1526 1528 1531 1534 1535 1537 1539 1542 1546 1551 1552 1554 1556 1556 1557 1560 1562 1565 1566 1568 1569 1570
1506 1512 1517 1517 1507 1503 1505 1508 1507 1511 1516 1518 1521 1521 1527 1528 1527 1530 1531 1533 1534 1533 1535 1536 1534 1532 1530 1529 1531 1533 1534 1537 1540 1544 1545 1548 1552 1554 1556 1557 1559 1561 1563 1565 1567 1569 1571 1572 1572
1508 1514 1514 1509 1510 1510 1509 1508 1508 1515 1518 1521 1521 1523 1531 1531 1531 1532 1534 1535 1536 1537 1538 1538 1537 1535 1532 1532 1534 1536 1539 1541 1543 1547 1550 1551 1553 1556 1558 1560 1562 1563 1565 1567 1568 1570 1572 1573 1574
1508 1514 1513 1506 1508 1511 1508 1506 1508 1512 1520 1522 1523 1527 1532 1533 1534 1535 1537 1538 1538 1539 1540 1540 1540 1539 1537 1536 1538 1539 1542 1544 1547 1550 1553 1555 1556 1558 1560 1563 1565 1566 1567 1568 1570 1571 1573 1574 1575
1508 1516 1520 1509 1509 1508 1504 1508 1517 1518 1520 1523 1523 1525 1530 1533 1535 1536 1538 1539 1540 1542 1542 1542 1543 1543 1542 1542 1544 1544 1545 1548 1551 1552 1555 1557 1560 1561 1564 1566 1567 1568 1569 1571 1572 1573 1574 1575 1576
1508 1517 1509 1497 1501 1503 1504 1506 1514 1520 1524 1526 1526 1529 1531 1532 1533 1536 1537 1538 1540 1541 1543 1544 1544 1545 1546 1547 1548 1549 1549 1551 1554 1556 1559 1560 1562 1564 1565 1567 1569 1571 1571 1572 1573 1574 1575 1577 1577
1509 1511 1497 1498 1500 1502 1509 1512 1513 1518 1526 1523 1525 1530 1530 1532 1535 1536 1537 1537 1539 1541 1544 1545 1546 1547 1548 1550 1551 1553 1554 1556 1557 1560 1562 1564 1564 1565 1566 1568 1570 1572 1572 1573 1574 1575 1576 1577 1576
1512 1499 1500 1498 1499 1503 1510 1516 1519 1518 1523 1525 1526 1530 1533 1534 1536 1536 1537 1539 1540 1541 1544 1546 1548 1549 1551 1552 1553 1556 1558 1560 1562 1564 1565 1566 1567 1566 1568 1569 1571 1573 1573 1573 1574 1574 1575 1576 1576
1510 1499 1498 1498 1501 1503 1510 1515 1519 1524 1525 1527 1529 1531 1532 1535 1537 1537 1537 1540 1542 1542 1544 1546 1548 1550 1553 1554 1555 1557 1560 1562 1564 1567 1566 1566 1569 1570 1570 1571 1571 1572 1572 1573 1573 1574 1574 1575 1575
1513 1502 1500 1502 1505 1506 1511 1519 1520 1527 1527 1529 1530 1531 1533 1535 1536 1538 1539 1541 1542 1543 1545 1547 1548 1551 1555 1556 1558 1558 1559 1561 1564 1566 1567 1568 1569 1569 1569 1570 1571 1571 1572 1572 1572 1572 1573 1572 1572
1511 1510 1507 1505 1507 1511 1513 1525 1524 1525 1527 1527 1528 1530 1533 1535 1537 1536 1538 1540 1541 1542 1544 1547 1549 1552 1554 1557 1558 1559 1560 1561 1563 1564 1565 1567 1568 1569 1569 1570 1570 1570 1570 1570 1570 1571 1570 1570 1570
1511 1513 1527 1511 1509 1512 1513 1536 1526 1525 1526 1527 1528 1531 1532 1534 1535 1535 1539 1541 1543 1544 1545 1548 1550 1551 1552 1554 1556 1558 1559 1561 1562 1564 1566 1567 1568 1568 1568 1569 1569 1569 1569 1568 1568 1568 1567 1567 1566
1517 1529 1527 1521 1510 1510 1513 1531 1525 1525 1524 1527 1529 1530 1532 1533 1535 1536 1538 1540 1542 1544 1546 1549 1551 1550 1552 1554 1555 1557 1558 1560 1562 1563 1565 1565 1566 1566 1566 1567 1567 1567 1567 1566 1565 1565 1564 1564 1563
1524 1525 1524 1528 1514 1510 1518 1524 1524 1524 1525 1527 1528 1529 1531 1532 1533 1535 1537 1540 1542 1544 1547 1548 1549 1550 1553 1553 1555 1557 1558 1560 1561 1562 1563 1564 1564 1565 1565 1565 1565 1565 1565 1564 1563 1562 1562 1561 1560
1502 1517 1523 1515 1510 1518 1522 1522 1522 1522 1525 1527 1527 1526 1527 1528 1530 1532 1535 1538 1541 1542 1543 1545 1546 1549 1550 1552 1553 1555 1557 1558 1559 1559 1560 1561 1561 1562 1562 1562 1562 1562 1562 1562 1561 1560 1559 1559 1557
1513 1523 1526 1515 1509 1514 1519 1525 1521 1521 1522 1521 1522 1524 1526 1528 1530 1531 1534 1535 1537 1538 1541 1542 1544 1547 1549 1550 1552 1554 1555 1557 1557 1558 1559 1558 1558 1559 1559 1559 1559 1559 1558 1558 1558 1557 1557 1555 1555
1513 1516 1518 1526 1521 1521 1530 1537 1526 1520 1519 1520 1520 1520 1523 1525 1528 1529 1530 1532 1535 1536 1538 1540 1541 1544 1547 1549 1552 1553 1554 1554 1555 1555 1556 1556 1555 1555 1556 1556 1556 1556 1555 1555 1555 1555 1555 1554 1553
1518 1497 1510 1508 1535 1547 1534 1564 1532 1522 1519 1518 1517 1518 1519 1521 1525 1526 1528 1530 1532 1533 1536 1538 1541 1543 1545 1547 1549 1551 1552 1552 1553 1553 1554 1553 1553 1552 1553 1554 1555 1555 1554 1554 1553 1554 1553 1553 1551
1506 1496 1503 1507 1524 1541 1538 1551 1530 1520 1524 1516 1513 1515 1514 1517 1519 1522 1523 1525 1527 1532 1534 1536 1539 1542 1544 1545 1547 1549 1550 1551 1551 1551 1551 1552 1552 1552 1553 1553 1553 1554 1553 1553 1552 1551 1551 1550 1549
1499 1505 1510 1517 1527 1559 1540 1546 1535 1525 1512 1509 1508 1509 1510 1512 1517 1520 1521 1523 1526 1530 1533 1535 1538 1540 1542 1543 1545 1546 1547 1548 1548 1548 1549 1550 1551 1552 1553 1552 1552 1552 1552 1552 1551 1551 1550 1549 1548
1500 1513 1547 1555 1562 1559 1536 1546 1528 1504 1500 1499 1501 1502 1505 1509 1513 1516 1518 1521 1524 1527 1530 1533 1536 1538 1541 1542 1543 1544 1546 1547 1547 1547 1548 1549 1549 1550 1551 1550 1550 1551 1551 1550 1550 1549 1548 1546 1545
1508 1507 1535 1570 1568 1562 1538 1544 1512 1491 1491 1493 1495 1498 1501 1506 1510 1511 1514 1517 1521 1524 1527 1531 1534 1536 1539 1540 1541 1543 1544 1546 1547 1548 1549 1550 1550 1551 1551 1550 1551 1551 1550 1549 1548 1547 1545 1543 1543
1495 1512 1505 1543 1549 1558 1542 1515 1493 1489 1493 1494 1496 1499 1498 1501 1506 1509 1512 1516 1520 1524 1526 1529 1533 1535 1537 1539 1540 1542 1543 1544 1545 1547 1547 1546 1546 1545 1545 1545 1545 1545 1544 1543 1542 1543 1543 1544 1544
1479 1489 1516 1535 1562 1565 1541 1524 1523 1502 1498 1495 1498 1498 1499 1501 1505 1508 1513 1516 1520 1523 1526 1530 1533 1534 1536 1537 1538 1539 1541 1542 1543 1544 1543 1542 1543 1543 1542 1541 1540 1540 1538 1537 1539 1540 1538 1538 1539
1495 1500 1509 1519 1534 1555 1553 1535 1496 1494 1492 1495 1496 1496 1499 1502 1505 1509 1512 1516 1519 1524 1527 1530 1532 1533 1534 1535 1536 1537 1537 1538 1539 1540 1541 1541 1539 1535 1534 1534 1535 1536 1537 1537 1539 1537 1537 1537 1536
1468 1489 1500 1529 1531 1533 1538 1526 1482 1483 1487 1491 1495 1497 1499 1503 1506 1508 1512 1516 1520 1523 1526 1528 1530 1531 1532 1533 1535 1535 1536 1536 1536 1537 1537 1538 1537 1536 1535 1531 1534 1539 1536 1534 1534 1534 1531 1532 1532